Showing default

MANDRAKE 2 BAKER, 48908

Orbit data source: Space-Track

MANDRAKE 2 BAKER, 48908 is an American payload satellite in SSO that was launched on Wed, 30 Jun 2021 UTC via an FALCON 9 launch vehicle from the Air Force Eastern Test Range (AFETR). Payload-class satellites include a variety of spacecraft equipped with specific instruments for various scientific and technological missions. These include communications satellites like Starlink; space stations such as the ISS; scientific satellites like the Hubble; Earth observation satellites from companies like Planet Labs, Umbra, and HawkEye 360; GPS; miniature CubeSats for education and research; and military/defense satellites.

Loading next visibility...
Identifier
48908, 2021-059AF
Orbit
SSO
Country
Flag of USUS
Related business
Manufacturer
Astro Digital
Mission
Operational Defense Communications
Bus & Motor
CORVUS-XL, Unknown motor
Mass
23 kg wet, 23 kg dry
Launch date (UTC)
2021-06-30 (5 years ago)
Launch vehicle
FALCON 9
Launch site
Air Force Eastern Test Range (AFETR)
Object type
Payload
Rocket body
Debris
Shape & HBR
Box + 1 Pan, 1.5 m
Radar Cross Section
0.375 m², Medium (>0.1 m² and < 1m²)

Expand to show TLE details & history
Last TLE update: 14 hours ago

TLE from 14 hours ago
0 MANDRAKE 2 BAKER
1 48908U 21059AF  26013.06865644  .00015156  00000-0  26125-3 0  9994
2 48908  97.6986 193.7763 0004050 180.1962 179.9288 15.51146804253186
Epoch: 2026-01-13T01:38Z
TLE epoch observation values (Epoch: 2026-01-13T01:38:51.916Z)
Latitude
-0.00004°
Longitude
56.50369°
Altitude
419.252 km
Speed
7.658 km/s
True Right ascension
12h 55m 06s
True Declination
0° 00' 00"
Sunlit
Object was in daylight at epoch
Visualization orbit readout
Latitude
Unknown
Longitude
Unknown
Altitude
Unknown
Speed
Unknown
Apparent Right ascension
Unknown
Apparent Declination
Unknown
Sunlit
N/A
Visualization observer readout
Local Sidereal Time
16:35:35
Azimuth
Unknown
Elevation
Unknown
Doppler factor
Unknown
Orbital elements
Apogee altitude
413.063 km
Perigee altitude
407.565 km
Semi-major axis
6,788.451 km
Eccentricity
0.00041
Inclination
97.6986°
RAAN
193.7763°
Arg. of periapsis
180.1962°
True anomaly
179.92886°
Mean anomaly
179.9288°
Eccentric anomaly
179.92883°
Mean motion
3.8805 °/min
Orbital period
92.77 mins
BSTAR
0.00026125
Loading maneuver chart data...
Computing Atmospheric mass density...

Documentation

Showing up to 5 results
|